Location: *
(51.1248°S, 108.4023°W)
Time: 03:00:11
(UTC+00:00)

Cosmos 1943 Rocket - Visible Passes

Search period start: 23 October 2021 00:00
Search period end: 02 November 2021 00:00
Orbit: 810 x 845 km, 71.0° (Epoch: 22 October)

Date Brightness Start Highest point End Pass type
(mag) Time Alt. Az. Time Alt. Az. Time Alt. Az.
23 Oct 2.6 07:51:19 46° ENE 07:51:32 46° ENE 07:56:50 10° SE visible
23 Oct 3.0 09:32:50 25° W 09:35:24 38° SW 09:40:37 10° SSE visible
23 Oct 4.4 11:18:07 10° SW 11:20:50 14° SSW 11:23:34 10° S visible
24 Oct 2.8 07:32:21 41° ENE 07:32:21 41° ENE 07:37:33 10° SE visible
24 Oct 2.9 09:13:52 29° W 09:16:07 42° SW 09:21:25 10° SSE visible
24 Oct 4.3 10:58:30 10° WSW 11:01:27 14° SSW 11:04:24 10° S visible
25 Oct 3.0 07:13:23 37° ENE 07:13:23 37° ENE 07:18:15 10° SE visible
25 Oct 2.8 08:54:52 33° W 08:56:50 46° SW 09:02:12 10° SSE visible
25 Oct 4.3 10:38:53 10° WSW 10:42:04 15° SSW 10:45:15 10° S visible
26 Oct 3.1 06:54:21 33° E 06:54:21 33° E 06:58:55 10° SE visible
26 Oct 2.7 08:35:51 38° WNW 08:37:33 51° SW 08:43:00 10° SSE visible
26 Oct 4.3 10:19:17 10° WSW 10:22:41 16° SSW 10:26:04 10° S visible
27 Oct 3.3 06:35:18 29° E 06:35:18 29° E 06:39:35 10° SE visible
27 Oct 2.5 08:16:48 43° WNW 08:18:16 56° SW 08:23:47 10° SSE visible
27 Oct 4.3 09:59:43 10° WSW 10:03:18 17° SSW 10:06:54 10° S visible
28 Oct 3.4 06:16:13 26° E 06:16:13 26° E 06:20:13 10° SE visible
28 Oct 2.4 07:57:43 48° WNW 07:59:01 62° SW 08:04:34 10° SSE visible
28 Oct 4.2 09:40:09 10° WSW 09:43:56 18° SSW 09:47:44 10° S visible
29 Oct 3.6 05:57:06 23° E 05:57:06 23° E 06:00:50 10° SE visible
29 Oct 2.3 07:38:36 53° WNW 07:39:46 68° WSW 07:45:20 10° SSE visible
29 Oct 4.2 09:20:37 10° W 09:24:34 19° SW 09:28:33 10° SSE visible
30 Oct 3.7 05:37:57 21° E 05:37:57 21° E 05:41:26 10° SE visible
30 Oct 2.2 07:19:26 58° NW 07:20:30 76° WSW 07:26:07 10° SSE visible
30 Oct 4.1 09:01:05 10° W 09:05:14 21° SW 09:09:22 10° SSE visible
31 Oct 3.8 05:18:44 19° E 05:18:44 19° E 05:21:59 10° ESE visible
31 Oct 2.1 07:00:14 61° NW 07:01:16 84° WSW 07:06:52 10° SSE visible
31 Oct 4.1 08:41:43 11° W 08:45:52 22° SW 08:50:11 10° SSE visible
31 Oct 4.9 10:31:29 10° SSW 10:31:55 10° S 10:32:22 10° S visible
01 Nov 3.8 04:59:29 17° E 04:59:29 17° E 05:02:29 10° ESE visible
01 Nov 2.0 06:40:58 61° NNW 06:42:01 88° ENE 06:47:38 10° SSE visible
01 Nov 4.0 08:22:27 11° W 08:26:31 24° SW 08:31:00 10° SSE visible
01 Nov 4.9 10:11:31 10° SSW 10:12:30 10° SSW 10:13:29 10° S visible
